Regional Weather Roundup
Issued by NWS

Home | Current Version | Previous Version | Graphics & Text | Print | Product List | Glossary Off
Versions: 1 2 3 4 5 6 7 8 9 10 11 12 13 14 15 16 17 18 19 20 21 22 23 24 25 26 27 28 29 30 31 32 33 34 35 36 37 38 39 40 41 42 43 44 45 46 47 48 49 50

868
ASUS43 KDTX 220010
RWRMI
MICHIGAN HOURLY REGIONAL WEATHER ROUNDUP
NATIONAL WEATHER SERVICE DETROIT/PONTIAC MI
700 PM EST SUN JAN 21 2018

NOTE: "FAIR" INDICATES FEW OR NO CLOUDS BELOW 12,000 FEET WITH NO
SIGNIFICANT WEATHER AND/OR OBSTRUCTION TO VISIBILITY.

MIZ047>049-052>055-059>063-066>070-074>076-081>083-220100-
SOUTHEAST LOWER MICHIGAN

CITY           SKY/WX    TMP DP  RH WIND       PRES   REMARKS
ADRIAN         FOG       37  37 100 E3        30.02R VSB 1/4
6HR MIN TEMP:  37; 6HR MAX TEMP:  40;

ALMA           LGT RAIN  36  36 100 CALM      30.01S
6HR MIN TEMP:  35; 6HR MAX TEMP:  38;

ANN ARBOR      FOG       38  38 100 CALM      30.01S VSB 1/4
BAD AXE        FAIR      31  29  96 CALM      30.03R FOG
6HR MIN TEMP:  31; 6HR MAX TEMP:  37;

CARO           CLOUDY    36  35  94 CALM      30.01S FOG
DETROIT CITY   FOG       37  36  96 E3        30.03R VSB 1/4
6HR MIN TEMP:  36; 6HR MAX TEMP:  42;

DETROIT        FOG       39  38  96 CALM      30.03S VSB 1/4
6HR MIN TEMP:  38; 6HR MAX TEMP:  42;

FLINT          CLOUDY    38  35  89 SE3       30.02R
6HR MIN TEMP:  37; 6HR MAX TEMP:  39;

GROSSE ILE     FOG       37  37  99 CALM      30.03R VSB 1/4
6HR MIN TEMP:  36; 6HR MAX TEMP:  38;

HILLSDALE      LGT RAIN  37  37 100 SE3       29.98S VSB 1/4
HOWELL         FOG       38  38 100 E3        30.00S VSB 1/4
6HR MIN TEMP:  38; 6HR MAX TEMP:  39;


CITY           SKY/WX    TMP DP  RH WIND       PRES   REMARKS
JACKSON        FOG       38  38 100 SE7       29.99S VSB 1/4 WCI  33
6HR MIN TEMP:  38; 6HR MAX TEMP:  40;

LAMBERTVILLE   FOG       42  41  97 CALM      30.02R VSB 1/4
6HR MIN TEMP:  41; 6HR MAX TEMP:  42;

LANSING        CLOUDY    37  37 100 E5        30.00S FOG     WCI  33
6HR MIN TEMP:  37; 6HR MAX TEMP:  39;

LAPEER         CLOUDY    37  37  97 CALM      30.02S FOG
6HR MIN TEMP:  36; 6HR MAX TEMP:  40;

MONROE         FOG       36  34  93 CALM      30.02R VSB 1/4
6HR MIN TEMP:  36; 6HR MAX TEMP:  41;

MT. CLEMENS    FOG       36  35  94 CALM      30.03S VSB 1/4
PONTIAC        FOG       37  37 100 E3        30.01S VSB 3/4
6HR MIN TEMP:  37; 6HR MAX TEMP:  39; 6HR PCP: TRACE;

PORT HOPE        N/A     31  30  96 CALM      30.02R
6HR MIN TEMP:  31; 6HR MAX TEMP:  35;

PORT HURON     CLOUDY    36  34  93 CALM      30.04R FOG
TRI CITIES     CLOUDY    36  35  96 E3        30.02R FOG
6HR MIN TEMP:  36; 6HR MAX TEMP:  39;

MIDLAND        CLOUDY    36  34  93 E3        30.01R FOG
6HR MIN TEMP:  36; 6HR MAX TEMP:  40;

TROY           CLOUDY    38  37  94 NE3       30.05S FOG
SAGINAW HB     CLOUDY    34  34 100 CALM      30.02R FOG
$$
MIZ043>046-050>051-056>058-064>065-071>073-077>080-220100-
SOUTHWEST LOWER MICHIGAN

CITY           SKY/WX    TMP DP  RH WIND       PRES   REMARKS
BATTLE CREEK   FOG       39  39 100 SE5       29.98R VSB 1/2
6HR MIN TEMP:  39; 6HR MAX TEMP:  40;

BENTON HARBOR  FOG       40  39  97 E6        29.95R VSB 1/4
6HR MIN TEMP:  40; 6HR MAX TEMP:  42; 6HR PCP:  0.01;

BIG RAPIDS     CLOUDY    36  35  94 SE3       29.97F FOG
6HR MIN TEMP:  36; 6HR MAX TEMP:  38;

COLDWATER      FOG       39  39 100 CALM      29.98R VSB 1/2
6HR MIN TEMP:  39; 6HR MAX TEMP:  42;

FREMONT        DRIZZLE   37  36  94 E3        29.97R
6HR MIN TEMP:  37; 6HR MAX TEMP:  38;

HOLLAND        FOG       38  36  92 E7        29.96S VSB 3/4 WCI  33
6HR MIN TEMP:  38; 6HR MAX TEMP:  40;

GRAND RAPIDS   DRZL/FOG  37  36  96 E8        29.98R VSB 1/4 WCI  31
6HR MIN TEMP:  37; 6HR MAX TEMP:  39; 6HR PCP:  0.02;

IONIA          FOG       36  36 100 E6        29.99R VSB 1/2 WCI  32
6HR MIN TEMP:  36; 6HR MAX TEMP:  38;

KALAMAZOO      LGT RAIN  40  38  93 SE3       29.98R VSB 1/2
6HR MIN TEMP:  39; 6HR MAX TEMP:  41; 6HR PCP:  0.01;

LUDINGTON      CLOUDY    38  37  94 CALM      29.97R FOG
6HR MIN TEMP:  38; 6HR MAX TEMP:  40;

MARSHALL       FOG       38  37  98 SE7       29.97S VSB 1/2 WCI  32
6HR MIN TEMP:  37; 6HR MAX TEMP:  39;

MOUNT PLEASANT CLOUDY    37  35  92 CALM      30.00R FOG
6HR MIN TEMP:  37; 6HR MAX TEMP:  39;

MUSKEGON       CLOUDY    39  36  89 E5        29.97R FOG
6HR MIN TEMP:  38; 6HR MAX TEMP:  39; 6HR PCP:  0.02;

SOUTH HAVEN    CLOUDY    40  39  95 SE6       29.96R FOG
$$
MIZ016>042-220100-
NORTHERN LOWER MICHIGAN

CITY           SKY/WX    TMP DP  RH WIND       PRES   REMARKS
ALPENA         CLOUDY    32  32 100 CALM      30.02S FOG
6HR MIN TEMP:  32; 6HR MAX TEMP:  43;

BEAVER ISLAND  FOG       37  35  94 CALM      30.02S VSB 1/2
6HR MIN TEMP:  36; 6HR MAX TEMP:  40;

BELLAIRE       CLOUDY    37  33  85 CALM      30.02R
6HR MIN TEMP:  37; 6HR MAX TEMP:  45;

CADILLAC       CLOUDY    36  34  94 E3        29.97S FOG
CHARLEVOIX     CLOUDY    33  33 100 CALM      30.04S FOG
6HR MIN TEMP:  33; 6HR MAX TEMP:  38;

FRANKFORT      MOCLDY    34  33  97 CALM      29.99S FOG
GAYLORD        CLOUDY    36  31  82 NE5       29.99R WCI  32
6HR MIN TEMP:  36; 6HR MAX TEMP:  43;

GRAYLING       FAIR      31  28  89 CALM      30.00S
6HR MIN TEMP:  31; 6HR MAX TEMP:  44;

HARBOR SPRINGS CLOUDY    34  32  93 NE3       30.01S
HOUGHTON LAKE  FAIR      32  30  92 CALM      29.99R
6HR MIN TEMP:  31; 6HR MAX TEMP:  42;

MANISTEE       CLOUDY    37  34  89 CALM      29.98R
OSCODA         FOG       32  31  97 SW5       30.02R VSB 1/4 WCI  27
6HR MIN TEMP:  32; 6HR MAX TEMP:  35;

PELLSTON       CLOUDY    34  31  88 CALM      30.02R
6HR MIN TEMP:  34; 6HR MAX TEMP:  39;

ROGERS CITY    CLOUDY    33  32  96 CALM      30.03S FOG
TRAVERSE CITY  CLOUDY    36  35  96 NE5       30.00R FOG     WCI  32
6HR MIN TEMP:  36; 6HR MAX TEMP:  45;

$$
MIZ007>008-015-220100-
EASTERN UPPER MICHIGAN

CITY           SKY/WX    TMP DP  RH WIND       PRES   REMARKS
KINROSS        MOCLDY    33  31  92 E5        30.03R WCI  29
6HR MIN TEMP:  33; 6HR MAX TEMP:  39;

MACKINAC ISLAN CLOUDY    34  34 100 E7        30.02S WCI  28
6HR MIN TEMP:  34; 6HR MAX TEMP:  36;

NEWBERRY       CLOUDY    35  34  96 CALM      30.01S FOG
6HR MIN TEMP:  34; 6HR MAX TEMP:  39;

S. S. MARIE    FAIR      36  31  82 CALM      30.03R
6HR MIN TEMP:  36; 6HR MAX TEMP:  39;

MUNISING         N/A     33  33 100 NW7       30.03R WCI  27
6HR MIN TEMP:  32; 6HR MAX TEMP:  37;

$$
MIZ004>006-011>014-085-220100-
CENTRAL UPPER MICHIGAN

CITY           SKY/WX    TMP DP  RH WIND       PRES   REMARKS
ESCANABA       CLOUDY    35  30  82 N3        30.02R
6HR MIN TEMP:  33; 6HR MAX TEMP:  38;

MENOMINEE      CLOUDY    36  30  79 NE5       30.01R WCI  32
6HR MIN TEMP:  35; 6HR MAX TEMP:  41;

SAWYER-GWINN   SNOW      32  30  93 N10       30.01R VSB 1/4 WCI  24
$$
MIZ001>003-009>011-084-220100-
WESTERN UPPER MICHIGAN

CITY           SKY/WX    TMP DP  RH WIND       PRES   REMARKS
IRON MOUNTAIN  CLOUDY    35  30  82 CALM      29.98R
6HR MIN TEMP:  34; 6HR MAX TEMP:  38;

HOUGHTON       CLOUDY    32  28  85 NE9       30.03R WCI  24
6HR MIN TEMP:  32; 6HR MAX TEMP:  35;

COPPER HARBOR    N/A     30  28  92 E9        30.08R WCI  22
6HR MIN TEMP:  29; 6HR MAX TEMP:  34;

IRONWOOD       FOG       30  28  92 CALM      30.02S VSB 1/4
6HR MIN TEMP:  29; 6HR MAX TEMP:  37;

$$

ABBREVIATIONS USED IN REMARKS
   TC - TEMPERATURE IN CELSIUS
  WCI - WIND CHILL INDEX
   HX - HEAT INDEX
  VSB - VISIBILITY





USA.gov is the U.S. government's official web portal to all federal, state and local government web resources and services.